Time,TemperatureF,DewpointF,PressureIn,WindDirection,WindDirectionDegrees,WindSpeedMPH,WindSpeedGustMPH,Humidity,HourlyPrecipIn,Conditions,Clouds,dailyrainin,SolarRadiationWatts/m^2,SoftwareType,DateUTC
2013-09-16 00:02:00,50.8,49.0,30.07,West,262,0.0,0.0,94,0.00,,,0.00,0,weatherlink.com 1.10,2013-09-16 04:02:00,
2013-09-16 00:17:00,50.8,49.0,30.07,West,262,0.0,0.0,94,0.00,,,0.00,0,weatherlink.com 1.10,2013-09-16 04:17:00,
2013-09-16 00:32:00,50.8,49.0,30.06,West,262,0.0,1.0,94,0.00,,,0.00,0,weatherlink.com 1.10,2013-09-16 04:32:00,
2013-09-16 00:47:00,50.8,50.0,30.06,West,262,0.0,0.0,95,0.00,,,0.00,0,weatherlink.com 1.10,2013-09-16 04:47:00,
2013-09-16 01:02:00,50.8,50.0,30.05,SSW,199,2.0,3.0,95,0.00,,,0.00,0,weatherlink.com 1.10,2013-09-16 05:02:00,
2013-09-16 01:17:00,50.8,50.0,30.05,SSW,198,0.0,2.0,95,0.00,,,0.00,0,weatherlink.com 1.10,2013-09-16 05:17:00,
2013-09-16 01:32:00,50.8,50.0,30.05,SSW,198,0.0,0.0,95,0.00,,,0.00,0,weatherlink.com 1.10,2013-09-16 05:32:00,
2013-09-16 01:47:00,50.8,50.0,30.05,SSW,198,0.0,0.0,95,0.00,,,0.00,0,weatherlink.com 1.10,2013-09-16 05:47:00,
2013-09-16 02:02:00,50.8,50.0,30.05,SSW,198,0.0,0.0,95,0.00,,,0.00,0,weatherlink.com 1.10,2013-09-16 06:02:00,
2013-09-16 02:17:00,50.9,50.0,30.05,SSW,198,0.0,0.0,96,0.00,,,0.00,0,weatherlink.com 1.10,2013-09-16 06:17:00,
2013-09-16 02:32:00,50.9,50.0,30.05,SSW,198,0.0,0.0,96,0.00,,,0.00,0,weatherlink.com 1.10,2013-09-16 06:32:00,
2013-09-16 02:47:00,50.9,50.0,30.04,SSW,198,0.0,0.0,96,0.00,,,0.00,0,weatherlink.com 1.10,2013-09-16 06:47:00,
2013-09-16 03:02:00,50.8,50.0,30.05,SSW,198,0.0,0.0,96,0.00,,,0.00,0,weatherlink.com 1.10,2013-09-16 07:02:00,
2013-09-16 03:17:00,50.8,50.0,30.04,SSW,198,0.0,0.0,95,0.00,,,0.00,0,weatherlink.com 1.10,2013-09-16 07:17:00,
2013-09-16 03:32:00,50.8,50.0,30.04,SSW,198,0.0,0.0,96,0.00,,,0.00,0,weatherlink.com 1.10,2013-09-16 07:32:00,
2013-09-16 03:47:00,50.8,50.0,30.04,SSW,198,0.0,0.0,96,0.00,,,0.00,0,weatherlink.com 1.10,2013-09-16 07:47:00,
2013-09-16 04:02:00,50.8,50.0,30.05,SSW,198,0.0,0.0,96,0.00,,,0.00,0,weatherlink.com 1.10,2013-09-16 08:02:00,
2013-09-16 04:17:00,51.0,50.0,30.04,SSW,198,0.0,1.0,96,0.00,,,0.00,0,weatherlink.com 1.10,2013-09-16 08:17:00,
2013-09-16 04:32:00,51.0,50.0,30.04,SSW,198,0.0,0.0,96,0.00,,,0.00,0,weatherlink.com 1.10,2013-09-16 08:32:00,
2013-09-16 04:47:00,51.0,50.0,30.04,SSW,198,0.0,0.0,96,0.00,,,0.00,0,weatherlink.com 1.10,2013-09-16 08:47:00,
2013-09-16 05:02:00,51.1,50.0,30.04,SSW,198,0.0,0.0,96,0.00,,,0.00,0,weatherlink.com 1.10,2013-09-16 09:02:00,
2013-09-16 05:17:00,51.3,51.0,30.03,SSW,198,0.0,0.0,97,0.00,,,0.00,0,weatherlink.com 1.10,2013-09-16 09:17:00,
2013-09-16 05:32:00,51.4,51.0,30.03,SSW,198,0.0,0.0,97,0.00,,,0.00,0,weatherlink.com 1.10,2013-09-16 09:32:00,
2013-09-16 05:47:00,51.8,51.0,30.03,SSW,198,0.0,0.0,97,0.00,,,0.00,0,weatherlink.com 1.10,2013-09-16 09:47:00,
2013-09-16 06:02:00,52.1,51.0,30.03,SW,215,0.0,3.0,97,0.00,,,0.00,0,weatherlink.com 1.10,2013-09-16 10:02:00,
2013-09-16 06:17:00,52.5,52.0,30.04,NNW,341,2.0,4.0,97,0.00,,,0.00,0,weatherlink.com 1.10,2013-09-16 10:17:00,
2013-09-16 06:32:00,52.8,52.0,30.04,WNW,287,1.0,3.0,96,0.00,,,0.00,0,weatherlink.com 1.10,2013-09-16 10:32:00,
2013-09-16 06:47:00,53.2,52.0,30.05,North,355,3.0,6.0,94,0.00,,,0.00,0,weatherlink.com 1.10,2013-09-16 10:47:00,
2013-09-16 07:02:00,54.1,51.0,30.05,NNW,333,2.0,7.0,90,0.00,,,0.00,5,weatherlink.com 1.10,2013-09-16 11:02:00,
2013-09-16 07:17:00,54.6,52.0,30.06,NW,304,3.0,6.0,90,0.00,,,0.00,9,weatherlink.com 1.10,2013-09-16 11:17:00,
2013-09-16 07:32:00,54.7,52.0,30.05,North,355,2.0,6.0,89,0.00,,,0.00,12,weatherlink.com 1.10,2013-09-16 11:32:00,
2013-09-16 07:47:00,55.0,52.0,30.05,NW,304,1.0,5.0,88,0.00,,,0.00,39,weatherlink.com 1.10,2013-09-16 11:47:00,
2013-09-16 08:02:00,55.1,52.0,30.06,NW,326,0.0,2.0,89,0.00,,,0.00,21,weatherlink.com 1.10,2013-09-16 12:02:00,
2013-09-16 08:17:00,55.2,52.0,30.06,NW,315,1.0,4.0,89,0.00,,,0.00,44,weatherlink.com 1.10,2013-09-16 12:17:00,
2013-09-16 08:32:00,55.2,52.0,30.06,NE,36,2.0,5.0,89,0.00,,,0.00,33,weatherlink.com 1.10,2013-09-16 12:32:00,
2013-09-16 08:47:00,55.1,53.0,30.06,North,355,0.0,4.0,91,0.00,,,0.00,62,weatherlink.com 1.10,2013-09-16 12:47:00,
2013-09-16 09:03:00,55.2,53.0,30.05,NE,36,0.0,1.0,92,0.01,,,0.01,128,weatherlink.com 1.10,2013-09-16 13:03:00,
2013-09-16 09:18:00,55.3,53.0,30.06,NNW,331,1.0,4.0,92,0.01,,,0.01,58,weatherlink.com 1.10,2013-09-16 13:18:00,
2013-09-16 09:33:00,55.1,53.0,30.07,NNE,13,0.0,4.0,92,0.01,,,0.01,77,weatherlink.com 1.10,2013-09-16 13:33:00,
2013-09-16 09:48:00,55.4,54.0,30.07,NNW,348,1.0,3.0,93,0.01,,,0.01,165,weatherlink.com 1.10,2013-09-16 13:48:00,
2013-09-16 10:03:00,55.8,53.0,30.07,NNW,340,0.0,3.0,90,0.00,,,0.01,121,weatherlink.com 1.10,2013-09-16 14:03:00,
2013-09-16 10:18:00,56.3,53.0,30.07,NNW,342,1.0,5.0,89,0.00,,,0.01,186,weatherlink.com 1.10,2013-09-16 14:18:00,
2013-09-16 10:33:00,57.1,54.0,30.08,NNW,336,0.0,3.0,89,0.00,,,0.01,262,weatherlink.com 1.10,2013-09-16 14:33:00,
2013-09-16 10:48:00,58.0,54.0,30.07,WNW,303,0.0,6.0,85,0.00,,,0.01,239,weatherlink.com 1.10,2013-09-16 14:48:00,
2013-09-16 11:03:00,58.8,54.0,30.07,WNW,294,4.0,6.0,84,0.00,,,0.01,353,weatherlink.com 1.10,2013-09-16 15:03:00,
2013-09-16 11:18:00,59.1,53.0,30.07,NNW,335,5.0,9.0,81,0.00,,,0.01,283,weatherlink.com 1.10,2013-09-16 15:18:00,
2013-09-16 11:33:00,59.8,53.0,30.07,NNW,327,4.0,13.0,79,0.00,,,0.01,772,weatherlink.com 1.10,2013-09-16 15:33:00,
2013-09-16 11:48:00,61.1,54.0,30.06,WNW,298,10.0,13.0,77,0.00,,,0.01,399,weatherlink.com 1.10,2013-09-16 15:48:00,
2013-09-16 12:03:00,61.3,53.0,30.06,NNE,17,3.0,17.0,75,0.00,,,0.01,315,weatherlink.com 1.10,2013-09-16 16:03:00,
2013-09-16 12:18:00,62.1,54.0,30.05,NW,317,5.0,13.0,76,0.00,,,0.01,204,weatherlink.com 1.10,2013-09-16 16:18:00,
2013-09-16 12:33:00,63.8,54.0,30.06,NNW,347,3.0,13.0,70,0.00,,,0.01,327,weatherlink.com 1.10,2013-09-16 16:33:00,
2013-09-16 12:48:00,64.2,53.0,30.05,WNW,298,4.0,14.0,68,0.00,,,0.01,744,weatherlink.com 1.10,2013-09-16 16:48:00,
2013-09-16 13:03:00,65.2,53.0,30.05,North,355,4.0,16.0,65,0.00,,,0.01,795,weatherlink.com 1.10,2013-09-16 17:03:00,
2013-09-16 13:18:00,64.5,53.0,30.06,WNW,295,6.0,13.0,66,0.00,,,0.01,309,weatherlink.com 1.10,2013-09-16 17:18:00,
2013-09-16 13:33:00,63.6,53.0,30.05,NW,309,3.0,15.0,69,0.00,,,0.01,230,weatherlink.com 1.10,2013-09-16 17:33:00,
2013-09-16 13:48:00,63.3,53.0,30.05,NNE,15,2.0,14.0,68,0.00,,,0.01,357,weatherlink.com 1.10,2013-09-16 17:48:00,
2013-09-16 14:03:00,63.4,53.0,30.05,NNW,327,6.0,10.0,70,0.00,,,0.01,257,weatherlink.com 1.10,2013-09-16 18:03:00,
2013-09-16 14:18:00,62.6,53.0,30.06,NNE,17,2.0,9.0,71,0.00,,,0.01,919,weatherlink.com 1.10,2013-09-16 18:18:00,
2013-09-16 14:33:00,64.9,54.0,30.05,NNW,327,4.0,10.0,67,0.00,,,0.01,246,weatherlink.com 1.10,2013-09-16 18:33:00,
2013-09-16 14:48:00,64.7,53.0,30.05,NE,47,4.0,13.0,67,0.00,,,0.01,759,weatherlink.com 1.10,2013-09-16 18:48:00,
2013-09-16 15:03:00,64.7,54.0,30.05,NNW,329,3.0,10.0,68,0.00,,,0.01,283,weatherlink.com 1.10,2013-09-16 19:03:00,
2013-09-16 15:18:00,63.6,52.0,30.05,North,360,7.0,11.0,67,0.00,,,0.01,86,weatherlink.com 1.10,2013-09-16 19:18:00,
2013-09-16 15:33:00,62.0,53.0,30.06,North,350,7.0,10.0,72,0.00,,,0.01,90,weatherlink.com 1.10,2013-09-16 19:33:00,
2013-09-16 15:48:00,61.3,53.0,30.06,North,350,6.0,9.0,74,0.00,,,0.01,141,weatherlink.com 1.10,2013-09-16 19:48:00,
2013-09-16 16:03:00,61.4,53.0,30.06,NW,317,5.0,14.0,75,0.00,,,0.01,236,weatherlink.com 1.10,2013-09-16 20:03:00,
2013-09-16 16:18:00,61.6,52.0,30.06,North,355,4.0,13.0,72,0.00,,,0.01,137,weatherlink.com 1.10,2013-09-16 20:18:00,
2013-09-16 16:33:00,62.2,54.0,30.06,NW,321,6.0,9.0,74,0.00,,,0.01,489,weatherlink.com 1.10,2013-09-16 20:33:00,
2013-09-16 16:48:00,64.2,54.0,30.06,North,355,5.0,9.0,69,0.00,,,0.01,425,weatherlink.com 1.10,2013-09-16 20:48:00,
2013-09-16 17:03:00,64.4,54.0,30.07,NW,317,7.0,12.0,68,0.00,,,0.01,142,weatherlink.com 1.10,2013-09-16 21:03:00,
2013-09-16 17:18:00,62.4,52.0,30.07,North,360,5.0,12.0,70,0.00,,,0.01,83,weatherlink.com 1.10,2013-09-16 21:18:00,
2013-09-16 17:33:00,61.3,53.0,30.08,NNW,336,4.0,9.0,75,0.00,,,0.01,77,weatherlink.com 1.10,2013-09-16 21:33:00,
2013-09-16 17:48:00,60.5,53.0,30.08,North,355,4.0,7.0,76,0.00,,,0.01,30,weatherlink.com 1.10,2013-09-16 21:48:00,
2013-09-16 18:03:00,59.7,52.0,30.09,NNW,333,1.0,9.0,77,0.00,,,0.01,46,weatherlink.com 1.10,2013-09-16 22:03:00,
2013-09-16 18:18:00,59.3,53.0,30.09,NNE,23,3.0,7.0,79,0.00,,,0.01,18,weatherlink.com 1.10,2013-09-16 22:18:00,
2013-09-16 18:33:00,58.7,53.0,30.09,NNE,16,1.0,6.0,80,0.00,,,0.01,16,weatherlink.com 1.10,2013-09-16 22:33:00,
2013-09-16 18:49:00,58.2,53.0,30.10,NNW,338,6.0,6.0,82,0.00,,,0.01,9,weatherlink.com 1.10,2013-09-16 22:49:00,
2013-09-16 19:04:00,57.6,53.0,30.10,NNW,329,4.0,5.0,83,0.00,,,0.01,0,weatherlink.com 1.10,2013-09-16 23:04:00,
2013-09-16 19:19:00,56.8,52.0,30.11,NNW,331,3.0,5.0,84,0.00,,,0.01,0,weatherlink.com 1.10,2013-09-16 23:19:00,
2013-09-16 19:34:00,56.4,52.0,30.12,NNW,338,2.0,7.0,85,0.00,,,0.01,0,weatherlink.com 1.10,2013-09-16 23:34:00,
2013-09-16 19:49:00,56.4,52.0,30.13,NNW,346,2.0,9.0,85,0.00,,,0.01,0,weatherlink.com 1.10,2013-09-16 23:49:00,
2013-09-16 20:04:00,56.2,52.0,30.14,NNW,340,1.0,9.0,85,0.00,,,0.01,0,weatherlink.com 1.10,2013-09-17 00:04:00,
2013-09-16 20:19:00,55.5,50.0,30.14,North,5,0.0,10.0,82,0.00,,,0.01,0,weatherlink.com 1.10,2013-09-17 00:19:00,
2013-09-16 20:34:00,54.5,48.0,30.16,NW,320,0.0,9.0,79,0.00,,,0.01,0,weatherlink.com 1.10,2013-09-17 00:34:00,
2013-09-16 20:49:00,53.6,48.0,30.16,East,89,7.0,8.0,80,0.00,,,0.01,0,weatherlink.com 1.10,2013-09-17 00:49:00,
2013-09-16 21:04:00,52.7,47.0,30.17,NE,42,2.0,7.0,80,0.00,,,0.01,0,weatherlink.com 1.10,2013-09-17 01:04:00,
2013-09-16 21:19:00,52.2,47.0,30.18,ENE,73,0.0,12.0,81,0.00,,,0.01,0,weatherlink.com 1.10,2013-09-17 01:19:00,
2013-09-16 21:34:00,51.7,46.0,30.19,East,87,1.0,7.0,81,0.00,,,0.01,0,weatherlink.com 1.10,2013-09-17 01:34:00,
2013-09-16 21:49:00,51.1,45.0,30.20,NW,319,0.0,3.0,81,0.00,,,0.01,0,weatherlink.com 1.10,2013-09-17 01:49:00,
2013-09-16 22:04:00,50.4,45.0,30.20,NE,43,3.0,5.0,81,0.00,,,0.01,0,weatherlink.com 1.10,2013-09-17 02:04:00,
2013-09-16 22:19:00,49.8,44.0,30.21,NNE,28,2.0,7.0,81,0.00,,,0.01,0,weatherlink.com 1.10,2013-09-17 02:19:00,
2013-09-16 22:34:00,49.2,44.0,30.22,NNW,340,0.0,7.0,81,0.00,,,0.01,0,weatherlink.com 1.10,2013-09-17 02:34:00,
2013-09-16 22:49:00,48.7,43.0,30.23,East,85,1.0,5.0,82,0.00,,,0.01,0,weatherlink.com 1.10,2013-09-17 02:49:00,
2013-09-16 23:04:00,48.1,43.0,30.23,NE,34,4.0,8.0,82,0.00,,,0.01,0,weatherlink.com 1.10,2013-09-17 03:04:00,
2013-09-16 23:19:00,47.5,42.0,30.23,NW,323,0.0,6.0,82,0.00,,,0.01,0,weatherlink.com 1.10,2013-09-17 03:19:00,
2013-09-16 23:34:00,46.9,41.0,30.24,NNE,33,4.0,11.0,81,0.00,,,0.01,0,weatherlink.com 1.10,2013-09-17 03:34:00,
2013-09-16 23:49:00,46.4,41.0,30.24,NW,313,2.0,8.0,81,0.00,,,0.01,0,weatherlink.com 1.10,2013-09-17 03:49:00,